Location: Unspecified
(43.8044°N, 11.0278°E)
Time: 13:04:13
(UTC+01:00)

CZ-3 Stage 3 - Visible Passes

Search period start: 31 October 2014 00:00
Search period end: 10 November 2014 00:00
Orbit: 417 x 34819 km, 30.9° (Epoch: 29 October)

Date Brightness Start Highest point End Pass type
(mag) Time Alt. Az. Time Alt. Az. Time Alt. Az.
31 Oct 6.0 22:51:45 10° SSW 06:44:58 53° SSW 06:53:47 10° SE visible
01 Nov 7.7 19:44:41 10° SSE 02:49:03 57° SSE 03:18:33 10° E visible
02 Nov 8.4 19:40:43 10° ESE 22:34:22 28° ESE 23:31:59 10° E visible
03 Nov 6.0 22:46:04 10° SSW 06:41:04 52° SSW 06:49:48 10° SE visible
04 Nov 7.6 19:32:29 10° SSE 02:45:50 59° SSE 03:14:41 10° E visible
05 Nov 8.3 19:24:19 10° ESE 22:30:00 30° ESE 23:28:58 10° E visible
06 Nov 6.0 22:40:23 10° SSW 06:37:03 51° SSW 06:45:41 10° SE visible
07 Nov 7.6 19:20:41 10° SSE 02:42:26 60° SSE 03:10:41 10° E visible
08 Nov 8.3 19:08:06 10° ESE 22:25:30 32° ESE 23:25:42 10° E visible
09 Nov 9.9 22:34:41 10° SSW 00:00:00 18° SSW 00:00:00 18° SSW visible
